Time,TemperatureF,DewpointF,PressureIn,WindDirection,WindDirectionDegrees,WindSpeedMPH,WindSpeedGustMPH,Humidity,HourlyPrecipIn,Conditions,Clouds,dailyrainin,SoftwareType,DateUTC
2013-10-25 00:03:00,42.6,34.6,30.32,NE,47,0.0,9.0,73,0.00,,,0.00,WUHU216DAVISVP2,2013-10-25 04:03:00,
2013-10-25 00:09:00,42.3,34.3,30.32,NNW,348,0.0,6.0,73,0.00,,,0.00,WUHU216DAVISVP2,2013-10-25 04:09:00,
2013-10-25 00:14:00,42.0,33.7,30.32,NE,54,2.0,3.0,72,0.00,,,0.00,WUHU216DAVISVP2,2013-10-25 04:14:00,
2013-10-25 00:19:00,41.8,33.2,30.32,NNE,17,0.0,5.0,71,0.00,,,0.00,WUHU216DAVISVP2,2013-10-25 04:19:00,
2013-10-25 00:24:00,41.6,33.3,30.32,NE,41,0.0,5.0,72,0.00,,,0.00,WUHU216DAVISVP2,2013-10-25 04:24:00,
2013-10-25 00:29:00,41.4,33.0,30.33,NE,56,0.0,7.0,72,0.00,,,0.00,WUHU216DAVISVP2,2013-10-25 04:29:00,
2013-10-25 00:34:00,41.2,32.5,30.33,NE,56,0.0,7.0,71,0.00,,,0.00,WUHU216DAVISVP2,2013-10-25 04:34:00,
2013-10-25 00:40:00,41.0,32.4,30.33,NNW,337,3.0,7.0,71,0.00,,,0.00,WUHU216DAVISVP2,2013-10-25 04:40:00,
2013-10-25 00:45:00,40.9,31.6,30.33,West,262,2.0,7.0,69,0.00,,,0.00,WUHU216DAVISVP2,2013-10-25 04:45:00,
2013-10-25 00:50:00,40.9,30.9,30.33,West,279,0.0,9.0,67,0.00,,,0.00,WUHU216DAVISVP2,2013-10-25 04:50:00,
2013-10-25 00:55:00,40.8,31.1,30.33,ENE,57,0.0,9.0,68,0.00,,,0.00,WUHU216DAVISVP2,2013-10-25 04:55:00,
2013-10-25 01:00:00,40.7,31.0,30.33,SSW,213,0.0,9.0,68,0.00,,,0.00,WUHU216DAVISVP2,2013-10-25 05:00:00,
2013-10-25 01:05:00,40.6,30.9,30.33,ESE,110,0.0,9.0,68,0.00,,,0.00,WUHU216DAVISVP2,2013-10-25 05:05:00,
2013-10-25 01:10:00,40.5,31.5,30.33,ESE,109,0.0,6.0,70,0.00,,,0.00,WUHU216DAVISVP2,2013-10-25 05:10:00,
2013-10-25 01:16:00,40.3,31.4,30.33,East,92,0.0,6.0,70,0.00,,,0.00,WUHU216DAVISVP2,2013-10-25 05:16:00,
2013-10-25 01:21:00,40.0,31.4,30.33,ENE,77,1.0,7.0,71,0.00,,,0.00,WUHU216DAVISVP2,2013-10-25 05:21:00,
2013-10-25 01:26:00,39.8,30.5,30.34,East,99,0.0,7.0,69,0.00,,,0.00,WUHU216DAVISVP2,2013-10-25 05:26:00,
2013-10-25 01:31:00,39.7,30.1,30.34,NNE,18,0.0,7.0,68,0.00,,,0.00,WUHU216DAVISVP2,2013-10-25 05:31:00,
2013-10-25 01:36:00,39.5,29.2,30.34,NNE,32,0.0,7.0,66,0.00,,,0.00,WUHU216DAVISVP2,2013-10-25 05:36:00,
2013-10-25 01:41:00,39.5,29.9,30.34,NE,44,0.0,6.0,68,0.00,,,0.00,WUHU216DAVISVP2,2013-10-25 05:41:00,
2013-10-25 01:46:00,39.2,30.0,30.34,NE,41,0.0,6.0,69,0.00,,,0.00,WUHU216DAVISVP2,2013-10-25 05:46:00,
2013-10-25 01:52:00,39.1,30.2,30.34,ESE,115,0.0,5.0,70,0.00,,,0.00,WUHU216DAVISVP2,2013-10-25 05:52:00,
2013-10-25 01:57:00,38.8,30.6,30.35,ESE,115,0.0,5.0,72,0.00,,,0.00,WUHU216DAVISVP2,2013-10-25 05:57:00,
2013-10-25 02:02:00,38.4,29.9,30.35,East,83,2.0,5.0,71,0.00,,,0.00,WUHU216DAVISVP2,2013-10-25 06:02:00,
2013-10-25 02:07:00,38.0,29.8,30.35,East,82,0.0,3.0,72,0.00,,,0.00,WUHU216DAVISVP2,2013-10-25 06:07:00,
2013-10-25 02:12:00,37.8,29.6,30.35,East,83,0.0,3.0,72,0.00,,,0.00,WUHU216DAVISVP2,2013-10-25 06:12:00,
2013-10-25 02:17:00,37.6,29.8,30.35,East,83,0.0,3.0,73,0.00,,,0.00,WUHU216DAVISVP2,2013-10-25 06:17:00,
2013-10-25 02:23:00,37.4,29.9,30.36,East,83,0.0,1.0,74,0.00,,,0.00,WUHU216DAVISVP2,2013-10-25 06:23:00,
2013-10-25 02:28:00,37.0,29.9,30.36,East,83,0.0,1.0,75,0.00,,,0.00,WUHU216DAVISVP2,2013-10-25 06:28:00,
2013-10-25 02:33:00,36.7,29.6,30.36,East,82,0.0,1.0,75,0.00,,,0.00,WUHU216DAVISVP2,2013-10-25 06:33:00,
2013-10-25 02:38:00,36.4,29.6,30.36,East,83,0.0,1.0,76,0.00,,,0.00,WUHU216DAVISVP2,2013-10-25 06:38:00,
2013-10-25 02:43:00,36.1,29.6,30.36,ENE,75,0.0,4.0,77,0.00,,,0.00,WUHU216DAVISVP2,2013-10-25 06:43:00,
2013-10-25 02:48:00,35.9,29.7,30.36,ENE,75,0.0,4.0,78,0.00,,,0.00,WUHU216DAVISVP2,2013-10-25 06:48:00,
2013-10-25 02:53:00,35.8,29.6,30.36,ENE,69,2.0,4.0,78,0.00,,,0.00,WUHU216DAVISVP2,2013-10-25 06:53:00,
2013-10-25 02:59:00,35.7,29.5,30.36,NNE,17,0.0,5.0,78,0.00,,,0.00,WUHU216DAVISVP2,2013-10-25 06:59:00,
2013-10-25 03:04:00,35.7,28.9,30.36,NNE,17,0.0,5.0,76,0.00,,,0.00,WUHU216DAVISVP2,2013-10-25 07:04:00,
2013-10-25 03:09:00,35.7,29.2,30.36,NNE,17,0.0,5.0,77,0.00,,,0.00,WUHU216DAVISVP2,2013-10-25 07:09:00,
2013-10-25 03:14:00,35.6,29.4,30.36,NNE,17,0.0,5.0,78,0.00,,,0.00,WUHU216DAVISVP2,2013-10-25 07:14:00,
2013-10-25 03:19:00,35.4,29.2,30.37,NNE,17,0.0,2.0,78,0.00,,,0.00,WUHU216DAVISVP2,2013-10-25 07:19:00,
2013-10-25 03:24:00,35.1,29.3,30.37,NNE,17,0.0,1.0,79,0.00,,,0.00,WUHU216DAVISVP2,2013-10-25 07:24:00,
2013-10-25 03:29:00,34.8,29.3,30.37,NNE,17,1.0,2.0,80,0.00,,,0.00,WUHU216DAVISVP2,2013-10-25 07:29:00,
2013-10-25 03:35:00,34.5,29.0,30.37,NNE,17,0.0,2.0,80,0.00,,,0.00,WUHU216DAVISVP2,2013-10-25 07:35:00,
2013-10-25 03:40:00,34.2,28.7,30.37,NNE,17,0.0,2.0,80,0.00,,,0.00,WUHU216DAVISVP2,2013-10-25 07:40:00,
2013-10-25 03:45:00,34.1,28.6,30.37,NNE,17,0.0,2.0,80,0.00,,,0.00,WUHU216DAVISVP2,2013-10-25 07:45:00,
2013-10-25 03:50:00,34.0,28.8,30.37,NNE,17,0.0,1.0,81,0.00,,,0.00,WUHU216DAVISVP2,2013-10-25 07:50:00,
2013-10-25 03:55:00,33.8,28.6,30.37,NNE,17,0.0,1.0,81,0.00,,,0.00,WUHU216DAVISVP2,2013-10-25 07:55:00,
2013-10-25 04:00:00,33.7,28.8,30.37,NNE,17,0.0,0.0,82,0.00,,,0.00,WUHU216DAVISVP2,2013-10-25 08:00:00,
2013-10-25 04:06:00,33.5,28.6,30.37,NNE,17,0.0,0.0,82,0.00,,,0.00,WUHU216DAVISVP2,2013-10-25 08:06:00,
2013-10-25 04:11:00,33.3,28.4,30.37,NNE,17,0.0,0.0,82,0.00,,,0.00,WUHU216DAVISVP2,2013-10-25 08:11:00,
2013-10-25 04:16:00,33.2,28.6,30.37,NNE,17,0.0,0.0,83,0.00,,,0.00,WUHU216DAVISVP2,2013-10-25 08:16:00,
2013-10-25 04:21:00,33.0,28.4,30.37,NNE,17,0.0,0.0,83,0.00,,,0.00,WUHU216DAVISVP2,2013-10-25 08:21:00,
2013-10-25 04:26:00,32.9,28.3,30.37,NNE,17,0.0,1.0,83,0.00,,,0.00,WUHU216DAVISVP2,2013-10-25 08:26:00,
2013-10-25 04:31:00,32.8,28.5,30.37,NNE,17,0.0,1.0,84,0.00,,,0.00,WUHU216DAVISVP2,2013-10-25 08:31:00,
2013-10-25 04:36:00,32.7,28.1,30.37,NNE,17,0.0,1.0,83,0.00,,,0.00,WUHU216DAVISVP2,2013-10-25 08:36:00,
2013-10-25 04:42:00,32.6,28.3,30.37,NNE,17,0.0,1.0,84,0.00,,,0.00,WUHU216DAVISVP2,2013-10-25 08:42:00,
2013-10-25 04:47:00,32.6,28.3,30.37,NNE,17,0.0,1.0,84,0.00,,,0.00,WUHU216DAVISVP2,2013-10-25 08:47:00,
2013-10-25 04:52:00,32.5,28.2,30.37,NNE,17,0.0,1.0,84,0.00,,,0.00,WUHU216DAVISVP2,2013-10-25 08:52:00,
2013-10-25 04:57:00,32.4,28.1,30.37,NNE,17,0.0,1.0,84,0.00,,,0.00,WUHU216DAVISVP2,2013-10-25 08:57:00,
2013-10-25 05:02:00,32.3,28.3,30.38,NNE,17,0.0,1.0,85,0.00,,,0.00,WUHU216DAVISVP2,2013-10-25 09:02:00,
2013-10-25 05:07:00,32.2,28.2,30.38,NNE,17,0.0,1.0,85,0.00,,,0.00,WUHU216DAVISVP2,2013-10-25 09:07:00,
2013-10-25 05:12:00,32.0,28.0,30.38,NNE,17,0.0,1.0,85,0.00,,,0.00,WUHU216DAVISVP2,2013-10-25 09:12:00,
2013-10-25 05:18:00,31.9,27.9,30.38,NNE,17,0.0,1.0,85,0.00,,,0.00,WUHU216DAVISVP2,2013-10-25 09:18:00,
2013-10-25 05:23:00,31.9,28.2,30.38,NNE,17,0.0,1.0,86,0.00,,,0.00,WUHU216DAVISVP2,2013-10-25 09:23:00,
2013-10-25 05:28:00,31.8,28.1,30.38,NNE,17,0.0,1.0,86,0.00,,,0.00,WUHU216DAVISVP2,2013-10-25 09:28:00,
2013-10-25 05:33:00,31.7,28.2,30.38,NNE,17,0.0,1.0,87,0.00,,,0.00,WUHU216DAVISVP2,2013-10-25 09:33:00,
2013-10-25 05:38:00,31.6,27.9,30.39,NNE,17,0.0,1.0,86,0.00,,,0.00,WUHU216DAVISVP2,2013-10-25 09:38:00,
2013-10-25 05:43:00,31.7,28.2,30.39,NNE,17,0.0,2.0,87,0.00,,,0.00,WUHU216DAVISVP2,2013-10-25 09:43:00,
2013-10-25 05:49:00,31.6,28.1,30.39,NNE,17,0.0,2.0,87,0.00,,,0.00,WUHU216DAVISVP2,2013-10-25 09:49:00,
2013-10-25 05:54:00,31.6,28.1,30.39,NNE,17,0.0,2.0,87,0.00,,,0.00,WUHU216DAVISVP2,2013-10-25 09:54:00,
2013-10-25 05:59:00,31.5,28.0,30.40,NNE,17,0.0,2.0,87,0.00,,,0.00,WUHU216DAVISVP2,2013-10-25 09:59:00,
2013-10-25 06:04:00,31.5,28.0,30.40,NNE,17,0.0,0.0,87,0.00,,,0.00,WUHU216DAVISVP2,2013-10-25 10:04:00,
2013-10-25 06:09:00,31.4,28.2,30.40,NNE,17,0.0,0.0,88,0.00,,,0.00,WUHU216DAVISVP2,2013-10-25 10:09:00,
2013-10-25 06:14:00,31.2,28.0,30.40,NNE,17,0.0,0.0,88,0.00,,,0.00,WUHU216DAVISVP2,2013-10-25 10:14:00,
2013-10-25 06:19:00,31.2,28.0,30.41,NNE,17,0.0,0.0,88,0.00,,,0.00,WUHU216DAVISVP2,2013-10-25 10:19:00,
2013-10-25 06:25:00,31.1,27.9,30.41,NNE,17,0.0,0.0,88,0.00,,,0.00,WUHU216DAVISVP2,2013-10-25 10:25:00,
2013-10-25 06:30:00,31.0,27.8,30.41,NNE,17,0.0,0.0,88,0.00,,,0.00,WUHU216DAVISVP2,2013-10-25 10:30:00,
2013-10-25 06:35:00,30.8,27.9,30.41,NNE,17,0.0,0.0,89,0.00,,,0.00,WUHU216DAVISVP2,2013-10-25 10:35:00,
2013-10-25 06:40:00,30.8,27.9,30.42,NNE,17,0.0,0.0,89,0.00,,,0.00,WUHU216DAVISVP2,2013-10-25 10:40:00,
2013-10-25 06:45:00,30.7,27.8,30.42,NNE,17,0.0,0.0,89,0.00,,,0.00,WUHU216DAVISVP2,2013-10-25 10:45:00,
2013-10-25 06:50:00,30.6,27.7,30.42,NNE,17,0.0,0.0,89,0.00,,,0.00,WUHU216DAVISVP2,2013-10-25 10:50:00,
2013-10-25 06:56:00,30.6,28.0,30.42,NNE,17,0.0,1.0,90,0.00,,,0.00,WUHU216DAVISVP2,2013-10-25 10:56:00,
2013-10-25 07:01:00,30.7,28.1,30.42,NNE,17,0.0,1.0,90,0.00,,,0.00,WUHU216DAVISVP2,2013-10-25 11:01:00,
2013-10-25 07:06:00,30.8,28.2,30.43,NNE,17,0.0,1.0,90,0.00,,,0.00,WUHU216DAVISVP2,2013-10-25 11:06:00,
2013-10-25 07:11:00,30.9,28.3,30.43,NNE,17,0.0,1.0,90,0.00,,,0.00,WUHU216DAVISVP2,2013-10-25 11:11:00,
2013-10-25 07:16:00,31.1,28.5,30.43,ENE,59,0.0,3.0,90,0.00,,,0.00,WUHU216DAVISVP2,2013-10-25 11:16:00,
2013-10-25 07:21:00,31.2,28.3,30.43,ENE,59,0.0,3.0,89,0.00,,,0.00,WUHU216DAVISVP2,2013-10-25 11:21:00,
2013-10-25 07:26:00,31.4,28.5,30.43,NE,51,2.0,3.0,89,0.00,,,0.00,WUHU216DAVISVP2,2013-10-25 11:26:00,
2013-10-25 07:32:00,31.6,28.7,30.43,ESE,106,0.0,3.0,89,0.00,,,0.00,WUHU216DAVISVP2,2013-10-25 11:32:00,
2013-10-25 07:37:00,31.8,28.6,30.43,ESE,106,0.0,3.0,88,0.00,,,0.00,WUHU216DAVISVP2,2013-10-25 11:37:00,
2013-10-25 07:42:00,31.9,28.7,30.43,ESE,106,0.0,3.0,88,0.00,,,0.00,WUHU216DAVISVP2,2013-10-25 11:42:00,
2013-10-25 07:47:00,31.9,28.7,30.44,ESE,107,0.0,3.0,88,0.00,,,0.00,WUHU216DAVISVP2,2013-10-25 11:47:00,
2013-10-25 07:52:00,31.9,28.4,30.44,ESE,107,0.0,2.0,87,0.00,,,0.00,WUHU216DAVISVP2,2013-10-25 11:52:00,
2013-10-25 07:57:00,31.9,28.4,30.44,ESE,106,0.0,2.0,87,0.00,,,0.00,WUHU216DAVISVP2,2013-10-25 11:57:00,
2013-10-25 08:03:00,31.8,28.3,30.44,ESE,106,0.0,2.0,87,0.00,,,0.00,WUHU216DAVISVP2,2013-10-25 12:03:00,
2013-10-25 08:08:00,31.7,28.2,30.44,ESE,107,0.0,2.0,87,0.00,,,0.00,WUHU216DAVISVP2,2013-10-25 12:08:00,
2013-10-25 08:13:00,31.6,28.1,30.44,ESE,107,0.0,2.0,87,0.00,,,0.00,WUHU216DAVISVP2,2013-10-25 12:13:00,
2013-10-25 08:18:00,31.5,28.3,30.44,ESE,106,0.0,0.0,88,0.00,,,0.00,WUHU216DAVISVP2,2013-10-25 12:18:00,
2013-10-25 08:23:00,31.5,28.3,30.44,ESE,107,0.0,0.0,88,0.00,,,0.00,WUHU216DAVISVP2,2013-10-25 12:23:00,
2013-10-25 08:28:00,31.4,28.2,30.45,ESE,107,0.0,0.0,88,0.00,,,0.00,WUHU216DAVISVP2,2013-10-25 12:28:00,
2013-10-25 08:34:00,31.4,28.5,30.45,ESE,107,0.0,0.0,89,0.00,,,0.00,WUHU216DAVISVP2,2013-10-25 12:34:00,
2013-10-25 08:39:00,31.5,28.6,30.45,ESE,107,0.0,0.0,89,0.00,,,0.00,WUHU216DAVISVP2,2013-10-25 12:39:00,
2013-10-25 08:44:00,31.6,29.0,30.45,ESE,107,0.0,0.0,90,0.00,,,0.00,WUHU216DAVISVP2,2013-10-25 12:44:00,
2013-10-25 08:49:00,31.7,29.1,30.45,ESE,107,0.0,0.0,90,0.00,,,0.00,WUHU216DAVISVP2,2013-10-25 12:49:00,
2013-10-25 08:54:00,32.0,29.4,30.45,ESE,106,0.0,1.0,90,0.00,,,0.00,WUHU216DAVISVP2,2013-10-25 12:54:00,
2013-10-25 08:59:00,32.3,29.6,30.46,ESE,107,0.0,1.0,90,0.00,,,0.00,WUHU216DAVISVP2,2013-10-25 12:59:00,
2013-10-25 09:04:00,32.4,29.7,30.46,ESE,106,0.0,1.0,90,0.00,,,0.00,WUHU216DAVISVP2,2013-10-25 13:04:00,
2013-10-25 09:10:00,32.8,30.1,30.46,ESE,107,0.0,2.0,90,0.00,,,0.00,WUHU216DAVISVP2,2013-10-25 13:10:00,
2013-10-25 09:15:00,33.2,30.8,30.47,NE,46,2.0,3.0,91,0.00,,,0.00,WUHU216DAVISVP2,2013-10-25 13:15:00,
2013-10-25 09:20:00,33.6,30.9,30.47,NE,56,4.0,4.0,90,0.00,,,0.00,WUHU216DAVISVP2,2013-10-25 13:20:00,
2013-10-25 09:25:00,34.4,30.9,30.47,ENE,73,1.0,4.0,87,0.00,,,0.00,WUHU216DAVISVP2,2013-10-25 13:25:00,
2013-10-25 09:30:00,35.3,31.2,30.47,ENE,70,2.0,4.0,85,0.00,,,0.00,WUHU216DAVISVP2,2013-10-25 13:30:00,
2013-10-25 09:35:00,36.1,31.4,30.47,ENE,57,2.0,4.0,83,0.00,,,0.00,WUHU216DAVISVP2,2013-10-25 13:35:00,
2013-10-25 09:41:00,36.9,31.9,30.47,ENE,57,3.0,7.0,82,0.00,,,0.00,WUHU216DAVISVP2,2013-10-25 13:41:00,
2013-10-25 09:46:00,37.5,31.9,30.48,NE,54,1.0,7.0,80,0.00,,,0.00,WUHU216DAVISVP2,2013-10-25 13:46:00,
2013-10-25 09:51:00,38.2,32.6,30.48,ENE,70,3.0,7.0,80,0.00,,,0.00,WUHU216DAVISVP2,2013-10-25 13:51:00,
2013-10-25 09:56:00,38.7,32.5,30.48,NE,50,4.0,7.0,78,0.00,,,0.00,WUHU216DAVISVP2,2013-10-25 13:56:00,
2013-10-25 10:01:00,39.2,33.3,30.48,ENE,66,5.0,8.0,79,0.00,,,0.00,WUHU216DAVISVP2,2013-10-25 14:01:00,
2013-10-25 10:06:00,39.7,32.8,30.48,NNE,30,5.0,8.0,76,0.00,,,0.00,WUHU216DAVISVP2,2013-10-25 14:06:00,
2013-10-25 10:12:00,40.2,33.0,30.48,NE,44,2.0,8.0,75,0.00,,,0.00,WUHU216DAVISVP2,2013-10-25 14:12:00,
2013-10-25 10:17:00,40.7,32.4,30.48,ENE,63,2.0,8.0,72,0.00,,,0.00,WUHU216DAVISVP2,2013-10-25 14:17:00,
2013-10-25 10:22:00,41.3,32.7,30.48,ENE,66,7.0,9.0,71,0.00,,,0.00,WUHU216DAVISVP2,2013-10-25 14:22:00,
2013-10-25 10:27:00,41.6,32.6,30.48,NE,52,2.0,9.0,70,0.00,,,0.00,WUHU216DAVISVP2,2013-10-25 14:27:00,
2013-10-25 10:33:00,42.2,32.5,30.48,ENE,57,0.0,8.0,68,0.00,,,0.00,WUHU216DAVISVP2,2013-10-25 14:33:00,
2013-10-25 10:38:00,42.8,33.1,30.48,NE,39,1.0,7.0,68,0.00,,,0.00,WUHU216DAVISVP2,2013-10-25 14:38:00,
2013-10-25 10:43:00,43.4,33.2,30.48,NE,34,3.0,10.0,67,0.00,,,0.00,WUHU216DAVISVP2,2013-10-25 14:43:00,
2013-10-25 10:48:00,43.8,33.3,30.48,ENE,67,0.0,10.0,66,0.00,,,0.00,WUHU216DAVISVP2,2013-10-25 14:48:00,
2013-10-25 10:53:00,44.3,33.4,30.48,NE,54,1.0,10.0,65,0.00,,,0.00,WUHU216DAVISVP2,2013-10-25 14:53:00,
2013-10-25 10:58:00,44.3,33.4,30.48,NE,56,0.0,7.0,65,0.00,,,0.00,WUHU216DAVISVP2,2013-10-25 14:58:00,
2013-10-25 11:03:00,44.7,33.3,30.48,NE,51,1.0,8.0,64,0.00,,,0.00,WUHU216DAVISVP2,2013-10-25 15:03:00,
2013-10-25 11:10:00,45.2,33.8,30.48,NE,51,1.0,8.0,64,0.00,,,0.00,WUHU216DAVISVP2,2013-10-25 15:10:00,
2013-10-25 11:15:00,45.8,33.6,30.48,ENE,65,0.0,12.0,62,0.00,,,0.00,WUHU216DAVISVP2,2013-10-25 15:15:00,
2013-10-25 11:20:00,45.9,34.1,30.48,NE,40,0.0,11.0,63,0.00,,,0.00,WUHU216DAVISVP2,2013-10-25 15:20:00,
2013-10-25 11:25:00,46.3,33.2,30.48,NW,309,3.0,11.0,60,0.00,,,0.00,WUHU216DAVISVP2,2013-10-25 15:25:00,
2013-10-25 11:30:00,46.8,34.6,30.48,NE,52,4.0,9.0,62,0.00,,,0.00,WUHU216DAVISVP2,2013-10-25 15:30:00,
2013-10-25 11:35:00,46.7,33.2,30.48,ENE,77,7.0,9.0,59,0.00,,,0.00,WUHU216DAVISVP2,2013-10-25 15:35:00,
2013-10-25 11:40:00,46.4,32.9,30.48,ENE,63,2.0,9.0,59,0.00,,,0.00,WUHU216DAVISVP2,2013-10-25 15:40:00,
2013-10-25 11:45:00,46.2,33.2,30.48,NE,40,1.0,9.0,60,0.00,,,0.00,WUHU216DAVISVP2,2013-10-25 15:45:00,
2013-10-25 11:50:00,46.1,32.6,30.48,NE,53,4.0,9.0,59,0.00,,,0.00,WUHU216DAVISVP2,2013-10-25 15:50:00,
2013-10-25 11:55:00,46.1,32.2,30.48,ENE,65,8.0,8.0,58,0.00,,,0.00,WUHU216DAVISVP2,2013-10-25 15:55:00,
2013-10-25 12:00:00,45.9,32.0,30.48,NE,52,4.0,8.0,58,0.00,,,0.00,WUHU216DAVISVP2,2013-10-25 16:00:00,
2013-10-25 12:05:00,46.0,30.8,30.48,East,99,0.0,10.0,55,0.00,,,0.00,WUHU216DAVISVP2,2013-10-25 16:05:00,
2013-10-25 12:10:00,46.8,32.9,30.48,NNE,27,4.0,10.0,58,0.00,,,0.00,WUHU216DAVISVP2,2013-10-25 16:10:00,
2013-10-25 12:16:00,48.0,31.7,30.48,NE,53,4.0,13.0,53,0.00,,,0.00,WUHU216DAVISVP2,2013-10-25 16:16:00,
2013-10-25 12:20:00,48.5,32.2,30.48,ENE,70,0.0,13.0,53,0.00,,,0.00,WUHU216DAVISVP2,2013-10-25 16:20:00,
2013-10-25 12:25:00,48.9,32.0,30.47,SE,138,0.0,12.0,52,0.00,,,0.00,WUHU216DAVISVP2,2013-10-25 16:25:00,
2013-10-25 12:30:00,49.2,30.8,30.47,NE,49,9.0,12.0,49,0.00,,,0.00,WUHU216DAVISVP2,2013-10-25 16:30:00,
2013-10-25 12:35:00,49.6,32.7,30.47,NNE,28,7.0,12.0,52,0.00,,,0.00,WUHU216DAVISVP2,2013-10-25 16:35:00,
2013-10-25 12:41:00,49.6,32.2,30.47,NE,39,7.0,12.0,51,0.00,,,0.00,WUHU216DAVISVP2,2013-10-25 16:41:00,
2013-10-25 12:46:00,49.2,31.8,30.47,North,360,3.0,12.0,51,0.00,,,0.00,WUHU216DAVISVP2,2013-10-25 16:46:00,
2013-10-25 12:51:00,49.0,32.6,30.46,ENE,74,5.0,10.0,53,0.00,,,0.00,WUHU216DAVISVP2,2013-10-25 16:51:00,
2013-10-25 12:56:00,49.7,32.3,30.46,ENE,59,11.0,11.0,51,0.00,,,0.00,WUHU216DAVISVP2,2013-10-25 16:56:00,
2013-10-25 13:01:00,50.5,32.0,30.46,NNE,22,1.0,11.0,49,0.00,,,0.00,WUHU216DAVISVP2,2013-10-25 17:01:00,
2013-10-25 13:06:00,50.6,32.1,30.46,NNE,25,4.0,11.0,49,0.00,,,0.00,WUHU216DAVISVP2,2013-10-25 17:06:00,
2013-10-25 13:11:00,50.1,31.6,30.46,ENE,59,2.0,10.0,49,0.00,,,0.00,WUHU216DAVISVP2,2013-10-25 17:11:00,
2013-10-25 13:16:00,50.8,32.8,30.46,NNE,19,0.0,9.0,50,0.00,,,0.00,WUHU216DAVISVP2,2013-10-25 17:16:00,
2013-10-25 13:21:00,50.2,31.7,30.45,NNE,16,0.0,9.0,49,0.00,,,0.00,WUHU216DAVISVP2,2013-10-25 17:21:00,
2013-10-25 13:26:00,50.6,31.6,30.45,NE,51,3.0,9.0,48,0.00,,,0.00,WUHU216DAVISVP2,2013-10-25 17:26:00,
2013-10-25 13:31:00,51.2,32.6,30.45,NE,46,5.0,13.0,49,0.00,,,0.00,WUHU216DAVISVP2,2013-10-25 17:31:00,
2013-10-25 13:36:00,51.2,32.1,30.45,ENE,69,0.0,13.0,48,0.00,,,0.00,WUHU216DAVISVP2,2013-10-25 17:36:00,
2013-10-25 13:41:00,51.3,31.7,30.45,NNE,31,1.0,13.0,47,0.00,,,0.00,WUHU216DAVISVP2,2013-10-25 17:41:00,
2013-10-25 13:46:00,51.3,30.0,30.44,ESE,103,0.0,13.0,44,0.00,,,0.00,WUHU216DAVISVP2,2013-10-25 17:46:00,
2013-10-25 13:51:00,51.0,31.5,30.44,ENE,71,2.0,6.0,47,0.00,,,0.00,WUHU216DAVISVP2,2013-10-25 17:51:00,
2013-10-25 13:56:00,51.8,31.0,30.43,East,101,2.0,11.0,45,0.00,,,0.00,WUHU216DAVISVP2,2013-10-25 17:56:00,
2013-10-25 14:01:00,51.9,30.5,30.43,NE,39,2.0,11.0,44,0.00,,,0.00,WUHU216DAVISVP2,2013-10-25 18:01:00,
2013-10-25 14:06:00,52.2,30.8,30.43,ENE,59,5.0,10.0,44,0.00,,,0.00,WUHU216DAVISVP2,2013-10-25 18:06:00,
2013-10-25 14:11:00,52.4,30.4,30.43,NE,40,1.0,10.0,43,0.00,,,0.00,WUHU216DAVISVP2,2013-10-25 18:11:00,
2013-10-25 14:16:00,52.3,30.3,30.43,ENE,65,0.0,8.0,43,0.00,,,0.00,WUHU216DAVISVP2,2013-10-25 18:16:00,
2013-10-25 14:21:00,52.2,30.2,30.43,ENE,70,0.0,9.0,43,0.00,,,0.00,WUHU216DAVISVP2,2013-10-25 18:21:00,
2013-10-25 14:26:00,51.9,30.5,30.42,NW,313,2.0,9.0,44,0.00,,,0.00,WUHU216DAVISVP2,2013-10-25 18:26:00,
2013-10-25 14:31:00,52.1,31.4,30.42,ENE,58,3.0,9.0,45,0.00,,,0.00,WUHU216DAVISVP2,2013-10-25 18:31:00,
2013-10-25 14:36:00,52.3,30.9,30.42,NNE,18,3.0,9.0,44,0.00,,,0.00,WUHU216DAVISVP2,2013-10-25 18:36:00,
2013-10-25 14:41:00,52.7,30.7,30.42,NNE,33,3.0,10.0,43,0.00,,,0.00,WUHU216DAVISVP2,2013-10-25 18:41:00,
2013-10-25 14:46:00,52.3,30.3,30.41,SW,230,1.0,10.0,43,0.00,,,0.00,WUHU216DAVISVP2,2013-10-25 18:46:00,
2013-10-25 14:51:00,52.5,31.7,30.41,East,79,8.0,9.0,45,0.00,,,0.00,WUHU216DAVISVP2,2013-10-25 18:51:00,
2013-10-25 14:56:00,52.8,30.8,30.41,NE,35,1.0,10.0,43,0.00,,,0.00,WUHU216DAVISVP2,2013-10-25 18:56:00,
2013-10-25 15:05:00,52.2,30.8,30.41,ENE,61,3.0,10.0,44,0.00,,,0.00,WUHU216DAVISVP2,2013-10-25 19:05:00,
2013-10-25 15:11:00,52.4,31.0,30.40,SE,142,0.0,8.0,44,0.00,,,0.00,WUHU216DAVISVP2,2013-10-25 19:11:00,
2013-10-25 15:16:00,52.3,30.3,30.40,ENE,63,7.0,8.0,43,0.00,,,0.00,WUHU216DAVISVP2,2013-10-25 19:16:00,
2013-10-25 15:21:00,52.2,30.4,30.40,NE,51,1.0,10.0,43,0.00,,,0.00,WUHU216DAVISVP2,2013-10-25 19:21:00,
2013-10-25 15:26:00,52.1,30.3,30.40,NE,55,0.0,10.0,43,0.00,,,0.00,WUHU216DAVISVP2,2013-10-25 19:26:00,
2013-10-25 15:33:00,52.1,30.7,30.40,NE,46,0.0,10.0,44,0.00,,,0.00,WUHU216DAVISVP2,2013-10-25 19:33:00,
2013-10-25 15:38:00,51.8,29.9,30.40,SW,225,0.0,8.0,43,0.00,,,0.00,WUHU216DAVISVP2,2013-10-25 19:38:00,
2013-10-25 15:43:00,51.4,29.5,30.40,NW,326,1.0,8.0,43,0.00,,,0.00,WUHU216DAVISVP2,2013-10-25 19:43:00,
2013-10-25 15:48:00,51.4,29.5,30.40,ENE,59,10.0,15.0,43,0.00,,,0.00,WUHU216DAVISVP2,2013-10-25 19:48:00,
2013-10-25 15:53:00,51.2,28.7,30.39,ENE,57,0.0,15.0,42,0.00,,,0.00,WUHU216DAVISVP2,2013-10-25 19:53:00,
2013-10-25 15:58:00,51.2,29.3,30.39,North,360,1.0,15.0,43,0.00,,,0.00,WUHU216DAVISVP2,2013-10-25 19:58:00,
2013-10-25 16:03:00,51.3,29.4,30.39,ESE,117,0.0,15.0,43,0.00,,,0.00,WUHU216DAVISVP2,2013-10-25 20:03:00,
2013-10-25 16:08:00,51.7,29.8,30.39,West,279,2.0,9.0,43,0.00,,,0.00,WUHU216DAVISVP2,2013-10-25 20:08:00,
2013-10-25 16:13:00,51.8,29.9,30.39,SE,130,0.0,9.0,43,0.00,,,0.00,WUHU216DAVISVP2,2013-10-25 20:13:00,
2013-10-25 16:18:00,52.0,28.9,30.39,ESE,114,0.0,7.0,41,0.00,,,0.00,WUHU216DAVISVP2,2013-10-25 20:18:00,
2013-10-25 16:23:00,51.9,29.4,30.38,ESE,114,0.0,3.0,42,0.00,,,0.00,WUHU216DAVISVP2,2013-10-25 20:23:00,
2013-10-25 16:28:00,52.0,28.9,30.38,NNW,340,0.0,5.0,41,0.00,,,0.00,WUHU216DAVISVP2,2013-10-25 20:28:00,
2013-10-25 16:33:00,52.7,29.5,30.38,SE,128,5.0,8.0,41,0.00,,,0.00,WUHU216DAVISVP2,2013-10-25 20:33:00,
2013-10-25 16:38:00,53.1,29.8,30.38,ENE,70,4.0,8.0,41,0.00,,,0.00,WUHU216DAVISVP2,2013-10-25 20:38:00,
2013-10-25 16:43:00,53.3,30.0,30.38,East,80,2.0,8.0,41,0.00,,,0.00,WUHU216DAVISVP2,2013-10-25 20:43:00,
2013-10-25 16:48:00,53.8,32.4,30.38,East,88,1.0,8.0,44,0.00,,,0.00,WUHU216DAVISVP2,2013-10-25 20:48:00,
2013-10-25 16:53:00,54.0,28.9,30.38,NE,42,0.0,7.0,38,0.00,,,0.00,WUHU216DAVISVP2,2013-10-25 20:53:00,
2013-10-25 16:58:00,53.9,29.3,30.38,NE,47,2.0,7.0,39,0.00,,,0.00,WUHU216DAVISVP2,2013-10-25 20:58:00,
2013-10-25 17:03:00,53.9,29.9,30.38,NE,54,3.0,4.0,40,0.00,,,0.00,WUHU216DAVISVP2,2013-10-25 21:03:00,
2013-10-25 17:08:00,53.6,29.7,30.38,NE,42,2.0,4.0,40,0.00,,,0.00,WUHU216DAVISVP2,2013-10-25 21:08:00,
2013-10-25 17:13:00,52.9,29.0,30.38,NE,52,0.0,4.0,40,0.00,,,0.00,WUHU216DAVISVP2,2013-10-25 21:13:00,
2013-10-25 17:18:00,52.5,29.3,30.38,NE,53,0.0,4.0,41,0.00,,,0.00,WUHU216DAVISVP2,2013-10-25 21:18:00,
2013-10-25 17:23:00,52.0,27.6,30.37,NE,52,0.0,4.0,39,0.00,,,0.00,WUHU216DAVISVP2,2013-10-25 21:23:00,
2013-10-25 17:28:00,51.5,28.4,30.37,NE,53,0.0,4.0,41,0.00,,,0.00,WUHU216DAVISVP2,2013-10-25 21:28:00,
2013-10-25 17:33:00,51.3,30.0,30.37,NE,53,0.0,3.0,44,0.00,,,0.00,WUHU216DAVISVP2,2013-10-25 21:33:00,
2013-10-25 17:38:00,51.1,29.8,30.37,NE,53,2.0,3.0,44,0.00,,,0.00,WUHU216DAVISVP2,2013-10-25 21:38:00,
2013-10-25 17:43:00,50.9,29.6,30.37,NE,39,3.0,4.0,44,0.00,,,0.00,WUHU216DAVISVP2,2013-10-25 21:43:00,
2013-10-25 17:48:00,50.7,29.4,30.37,ENE,65,0.0,6.0,44,0.00,,,0.00,WUHU216DAVISVP2,2013-10-25 21:48:00,
2013-10-25 17:53:00,50.5,28.7,30.37,ENE,58,1.0,6.0,43,0.00,,,0.00,WUHU216DAVISVP2,2013-10-25 21:53:00,
2013-10-25 17:59:00,50.4,28.6,30.37,ENE,58,0.0,6.0,43,0.00,,,0.00,WUHU216DAVISVP2,2013-10-25 21:59:00,
2013-10-25 18:03:00,50.2,29.6,30.37,ENE,57,0.0,3.0,45,0.00,,,0.00,WUHU216DAVISVP2,2013-10-25 22:03:00,
2013-10-25 18:09:00,49.9,29.8,30.37,ENE,58,0.0,3.0,46,0.00,,,0.00,WUHU216DAVISVP2,2013-10-25 22:09:00,
2013-10-25 18:13:00,49.6,31.7,30.36,ENE,58,0.0,1.0,50,0.00,,,0.00,WUHU216DAVISVP2,2013-10-25 22:13:00,
2013-10-25 18:18:00,49.1,32.7,30.36,ENE,64,1.0,2.0,53,0.00,,,0.00,WUHU216DAVISVP2,2013-10-25 22:18:00,
2013-10-25 18:23:00,48.7,30.9,30.36,ENE,64,1.0,2.0,50,0.00,,,0.00,WUHU216DAVISVP2,2013-10-25 22:23:00,
2013-10-25 18:28:00,48.4,33.4,30.36,ENE,64,0.0,2.0,56,0.00,,,0.00,WUHU216DAVISVP2,2013-10-25 22:28:00,
2013-10-25 18:33:00,48.0,34.3,30.36,ENE,64,0.0,2.0,59,0.00,,,0.00,WUHU216DAVISVP2,2013-10-25 22:33:00,
2013-10-25 18:38:00,47.5,35.1,30.36,ENE,64,0.0,2.0,62,0.00,,,0.00,WUHU216DAVISVP2,2013-10-25 22:38:00,
2013-10-25 18:44:00,46.9,34.6,30.36,ENE,64,0.0,1.0,62,0.00,,,0.00,WUHU216DAVISVP2,2013-10-25 22:44:00,
2013-10-25 18:48:00,46.3,35.3,30.36,ENE,64,0.0,0.0,65,0.00,,,0.00,WUHU216DAVISVP2,2013-10-25 22:48:00,
2013-10-25 18:53:00,45.6,35.0,30.36,ENE,64,0.0,0.0,66,0.00,,,0.00,WUHU216DAVISVP2,2013-10-25 22:53:00,
2013-10-25 18:58:00,45.0,34.4,30.36,ENE,64,0.0,1.0,66,0.00,,,0.00,WUHU216DAVISVP2,2013-10-25 22:58:00,
2013-10-25 19:03:00,44.4,34.6,30.36,ENE,64,0.0,1.0,68,0.00,,,0.00,WUHU216DAVISVP2,2013-10-25 23:03:00,
2013-10-25 19:08:00,43.8,34.4,30.36,ENE,64,0.0,1.0,69,0.00,,,0.00,WUHU216DAVISVP2,2013-10-25 23:08:00,
2013-10-25 19:13:00,43.2,34.2,30.36,ENE,64,0.0,1.0,70,0.00,,,0.00,WUHU216DAVISVP2,2013-10-25 23:13:00,
2013-10-25 19:19:00,42.6,33.9,30.36,ENE,64,0.0,0.0,71,0.00,,,0.00,WUHU216DAVISVP2,2013-10-25 23:19:00,
2013-10-25 19:24:00,42.0,33.7,30.36,ENE,64,0.0,0.0,72,0.00,,,0.00,WUHU216DAVISVP2,2013-10-25 23:24:00,
2013-10-25 19:29:00,41.5,33.6,30.37,ENE,64,0.0,0.0,73,0.00,,,0.00,WUHU216DAVISVP2,2013-10-25 23:29:00,
2013-10-25 19:34:00,41.1,32.8,30.37,ENE,64,0.0,0.0,72,0.00,,,0.00,WUHU216DAVISVP2,2013-10-25 23:34:00,
2013-10-25 19:39:00,40.7,33.1,30.37,ENE,64,0.0,0.0,74,0.00,,,0.00,WUHU216DAVISVP2,2013-10-25 23:39:00,
2013-10-25 19:44:00,40.4,32.8,30.37,ENE,64,0.0,0.0,74,0.00,,,0.00,WUHU216DAVISVP2,2013-10-25 23:44:00,
2013-10-25 19:49:00,40.0,33.1,30.37,ENE,64,0.0,0.0,76,0.00,,,0.00,WUHU216DAVISVP2,2013-10-25 23:49:00,
2013-10-25 19:54:00,39.5,32.9,30.37,ENE,64,0.0,0.0,77,0.00,,,0.00,WUHU216DAVISVP2,2013-10-25 23:54:00,
2013-10-25 19:59:00,39.2,32.6,30.37,ENE,64,0.0,0.0,77,0.00,,,0.00,WUHU216DAVISVP2,2013-10-25 23:59:00,
2013-10-25 20:04:00,38.9,32.6,30.37,ENE,64,0.0,0.0,78,0.00,,,0.00,WUHU216DAVISVP2,2013-10-26 00:04:00,
2013-10-25 20:09:00,38.7,32.4,30.37,ENE,64,0.0,0.0,78,0.00,,,0.00,WUHU216DAVISVP2,2013-10-26 00:09:00,
2013-10-25 20:14:00,38.7,32.5,30.37,ENE,64,0.0,0.0,78,0.00,,,0.00,WUHU216DAVISVP2,2013-10-26 00:14:00,
2013-10-25 20:19:00,38.7,32.5,30.37,ENE,64,0.0,0.0,78,0.00,,,0.00,WUHU216DAVISVP2,2013-10-26 00:19:00,
2013-10-25 20:24:00,38.5,32.3,30.37,ENE,64,0.0,0.0,78,0.00,,,0.00,WUHU216DAVISVP2,2013-10-26 00:24:00,
2013-10-25 20:29:00,38.2,32.3,30.38,ENE,64,0.0,0.0,79,0.00,,,0.00,WUHU216DAVISVP2,2013-10-26 00:29:00,
2013-10-25 20:34:00,37.8,32.2,30.38,ENE,64,0.0,1.0,80,0.00,,,0.00,WUHU216DAVISVP2,2013-10-26 00:34:00,
2013-10-25 20:39:00,37.6,32.3,30.38,ENE,64,0.0,1.0,81,0.00,,,0.00,WUHU216DAVISVP2,2013-10-26 00:39:00,
2013-10-25 20:44:00,37.4,32.4,30.38,ENE,64,0.0,1.0,82,0.00,,,0.00,WUHU216DAVISVP2,2013-10-26 00:44:00,
2013-10-25 20:49:00,37.2,32.2,30.38,ENE,64,0.0,1.0,82,0.00,,,0.00,WUHU216DAVISVP2,2013-10-26 00:49:00,
2013-10-25 20:54:00,37.1,32.1,30.38,ENE,64,0.0,0.0,82,0.00,,,0.00,WUHU216DAVISVP2,2013-10-26 00:54:00,
2013-10-25 20:59:00,37.0,32.0,30.38,ENE,64,0.0,0.0,82,0.00,,,0.00,WUHU216DAVISVP2,2013-10-26 00:59:00,
2013-10-25 21:04:00,36.8,31.8,30.38,ENE,64,0.0,0.0,82,0.00,,,0.00,WUHU216DAVISVP2,2013-10-26 01:04:00,
2013-10-25 21:09:00,36.6,31.6,30.38,ENE,64,0.0,0.0,82,0.00,,,0.00,WUHU216DAVISVP2,2013-10-26 01:09:00,
2013-10-25 21:14:00,36.5,31.8,30.38,ENE,64,0.0,0.0,83,0.00,,,0.00,WUHU216DAVISVP2,2013-10-26 01:14:00,
2013-10-25 21:19:00,36.4,32.0,30.38,ENE,64,0.0,0.0,84,0.00,,,0.00,WUHU216DAVISVP2,2013-10-26 01:19:00,
2013-10-25 21:24:00,36.2,31.8,30.38,ENE,64,0.0,0.0,84,0.00,,,0.00,WUHU216DAVISVP2,2013-10-26 01:24:00,
2013-10-25 21:29:00,36.1,31.7,30.38,ENE,64,0.0,0.0,84,0.00,,,0.00,WUHU216DAVISVP2,2013-10-26 01:29:00,
2013-10-25 21:34:00,36.0,31.6,30.38,ENE,64,0.0,0.0,84,0.00,,,0.00,WUHU216DAVISVP2,2013-10-26 01:34:00,
2013-10-25 21:39:00,35.8,31.7,30.38,ENE,64,0.0,0.0,85,0.00,,,0.00,WUHU216DAVISVP2,2013-10-26 01:39:00,
2013-10-25 21:44:00,35.7,31.6,30.38,ENE,64,0.0,0.0,85,0.00,,,0.00,WUHU216DAVISVP2,2013-10-26 01:44:00,
2013-10-25 21:49:00,35.5,31.7,30.38,ENE,64,0.0,0.0,86,0.00,,,0.00,WUHU216DAVISVP2,2013-10-26 01:49:00,
2013-10-25 21:54:00,35.5,31.7,30.38,ENE,64,0.0,0.0,86,0.00,,,0.00,WUHU216DAVISVP2,2013-10-26 01:54:00,
2013-10-25 21:59:00,35.3,31.5,30.38,ENE,64,0.0,0.0,86,0.00,,,0.00,WUHU216DAVISVP2,2013-10-26 01:59:00,
2013-10-25 22:04:00,35.3,31.8,30.38,ENE,64,0.0,0.0,87,0.00,,,0.00,WUHU216DAVISVP2,2013-10-26 02:04:00,
2013-10-25 22:09:00,35.2,31.7,30.38,ENE,64,0.0,0.0,87,0.00,,,0.00,WUHU216DAVISVP2,2013-10-26 02:09:00,
2013-10-25 22:14:00,35.3,31.8,30.38,ENE,64,0.0,0.0,87,0.00,,,0.00,WUHU216DAVISVP2,2013-10-26 02:14:00,
2013-10-25 22:19:00,35.3,31.8,30.38,ENE,64,0.0,0.0,87,0.00,,,0.00,WUHU216DAVISVP2,2013-10-26 02:19:00,
2013-10-25 22:24:00,35.2,31.7,30.38,ENE,64,0.0,0.0,87,0.00,,,0.00,WUHU216DAVISVP2,2013-10-26 02:24:00,
2013-10-25 22:29:00,35.2,31.7,30.38,ENE,64,0.0,0.0,87,0.00,,,0.00,WUHU216DAVISVP2,2013-10-26 02:29:00,
2013-10-25 22:34:00,35.1,31.6,30.38,ENE,64,0.0,0.0,87,0.00,,,0.00,WUHU216DAVISVP2,2013-10-26 02:34:00,
2013-10-25 22:39:00,34.9,31.4,30.38,ENE,64,0.0,0.0,87,0.00,,,0.00,WUHU216DAVISVP2,2013-10-26 02:39:00,
2013-10-25 22:44:00,34.8,31.3,30.38,ENE,64,0.0,0.0,87,0.00,,,0.00,WUHU216DAVISVP2,2013-10-26 02:44:00,
2013-10-25 22:49:00,34.7,31.5,30.38,ENE,64,0.0,0.0,88,0.00,,,0.00,WUHU216DAVISVP2,2013-10-26 02:49:00,
2013-10-25 22:54:00,34.6,31.4,30.38,ENE,64,0.0,0.0,88,0.00,,,0.00,WUHU216DAVISVP2,2013-10-26 02:54:00,
2013-10-25 22:59:00,34.5,31.3,30.38,ENE,64,0.0,0.0,88,0.00,,,0.00,WUHU216DAVISVP2,2013-10-26 02:59:00,
2013-10-25 23:04:00,34.4,31.2,30.38,ENE,64,0.0,0.0,88,0.00,,,0.00,WUHU216DAVISVP2,2013-10-26 03:04:00,
2013-10-25 23:09:00,34.4,31.2,30.38,ENE,64,0.0,0.0,88,0.00,,,0.00,WUHU216DAVISVP2,2013-10-26 03:09:00,
2013-10-25 23:14:00,34.3,31.1,30.38,ENE,64,0.0,0.0,88,0.00,,,0.00,WUHU216DAVISVP2,2013-10-26 03:14:00,
2013-10-25 23:19:00,34.2,31.3,30.38,ENE,64,0.0,0.0,89,0.00,,,0.00,WUHU216DAVISVP2,2013-10-26 03:19:00,
2013-10-25 23:24:00,34.1,31.2,30.38,ENE,64,0.0,0.0,89,0.00,,,0.00,WUHU216DAVISVP2,2013-10-26 03:24:00,
2013-10-25 23:29:00,34.0,31.1,30.38,ENE,64,0.0,0.0,89,0.00,,,0.00,WUHU216DAVISVP2,2013-10-26 03:29:00,
2013-10-25 23:34:00,34.0,31.3,30.38,ENE,64,0.0,0.0,90,0.00,,,0.00,WUHU216DAVISVP2,2013-10-26 03:34:00,
2013-10-25 23:39:00,33.9,31.2,30.38,ENE,64,0.0,0.0,90,0.00,,,0.00,WUHU216DAVISVP2,2013-10-26 03:39:00,
2013-10-25 23:44:00,33.9,31.2,30.37,ENE,64,0.0,0.0,90,0.00,,,0.00,WUHU216DAVISVP2,2013-10-26 03:44:00,
2013-10-25 23:49:00,33.9,31.2,30.37,ENE,64,0.0,1.0,90,0.00,,,0.00,WUHU216DAVISVP2,2013-10-26 03:49:00,
2013-10-25 23:54:00,33.9,31.5,30.37,ENE,64,0.0,1.0,91,0.00,,,0.00,WUHU216DAVISVP2,2013-10-26 03:54:00,
2013-10-25 23:59:00,34.0,31.6,30.37,ENE,64,0.0,1.0,91,0.00,,,0.00,WUHU216DAVISVP2,2013-10-26 03:59:00,